SVA3KP OEJN-OERK

Flight info

Callsign SVA3KP
Flight time 1h 13m
Altitude 37000
Route EGREP T532 DAW DCT KAVUR
Aircraft A320/M-SDE3FGHIRWY/LB1

Departure

Time 2026-05-04 17:56
Airport King Abdulaziz International Airport (OEJN)

Arrival

Time 2026-05-04 19:10
Airport King Khalid International Airport (OERK)
Time Latitude Longitude Altitude Speed Heading
2026-05-04 17:31 21.67370 39.17227 31 ft 0 kts 129°
2026-05-04 17:47 21.67382 39.17211 32 ft 3 kts 129°
2026-05-04 17:47 21.67397 39.17191 31 ft 3 kts 130°
2026-05-04 17:48 21.67413 39.17173 30 ft 3 kts 142°
2026-05-04 17:48 21.67432 39.17161 30 ft 3 kts 170°
2026-05-04 17:48 21.67451 39.17163 29 ft 1 kts 219°
2026-05-04 17:50 21.67444 39.17157 31 ft 8 kts 220°
2026-05-04 17:50 21.67384 39.17106 32 ft 0 kts 218°
2026-05-04 17:50 21.67374 39.17097 32 ft 7 kts 219°
2026-05-04 17:51 21.67277 39.17001 32 ft 28 kts 230°
2026-05-04 17:51 21.67221 39.16794 32 ft 30 kts 271°
2026-05-04 17:51 21.67248 39.16572 32 ft 28 kts 278°
2026-05-04 17:51 21.67388 39.16465 31 ft 26 kts 340°
2026-05-04 17:52 21.67544 39.16399 31 ft 18 kts 317°
2026-05-04 17:52 21.67535 39.16276 30 ft 16 kts 235°
2026-05-04 17:52 21.67443 39.16266 30 ft 14 kts 160°
2026-05-04 17:52 21.67358 39.16298 31 ft 12 kts 160°
2026-05-04 17:53 21.67272 39.16331 32 ft 14 kts 162°
2026-05-04 17:53 21.67193 39.16312 32 ft 12 kts 224°
2026-05-04 17:53 21.67126 39.16286 33 ft 10 kts 171°
2026-05-04 17:53 21.67019 39.16333 33 ft 21 kts 157°
2026-05-04 17:54 21.66874 39.16382 34 ft 22 kts 163°
2026-05-04 17:54 21.66721 39.16437 34 ft 24 kts 159°
2026-05-04 17:54 21.66555 39.16502 35 ft 27 kts 161°
2026-05-04 17:54 21.66378 39.16575 35 ft 25 kts 153°
2026-05-04 17:55 21.66285 39.16609 35 ft 7 kts 200°
2026-05-04 17:55 21.66267 39.16561 34 ft 11 kts 258°
2026-05-04 17:55 21.66277 39.16418 34 ft 22 kts 330°
2026-05-04 17:55 21.66457 39.16349 33 ft 50 kts 340°
2026-05-04 17:56 21.67005 39.16138 32 ft 115 kts 340°
2026-05-04 17:56 21.67930 39.15774 35 ft 165 kts 340°
2026-05-04 17:56 21.69003 39.15362 631 ft 167 kts 339°
2026-05-04 17:56 21.70123 39.14926 1183 ft 178 kts 341°
2026-05-04 17:57 21.71350 39.14442 1576 ft 199 kts 341°
2026-05-04 17:57 21.72732 39.13905 1916 ft 222 kts 341°
2026-05-04 17:57 21.74255 39.13344 2392 ft 239 kts 341°
2026-05-04 17:57 21.75870 39.12777 2992 ft 251 kts 340°
2026-05-04 17:58 21.77534 39.12118 3645 ft 259 kts 338°
2026-05-04 17:58 21.79240 39.11406 4395 ft 263 kts 338°
2026-05-04 17:58 21.80953 39.10691 5074 ft 269 kts 338°
2026-05-04 17:58 21.82709 39.09970 5742 ft 272 kts 338°
2026-05-04 17:59 21.84493 39.09248 5944 ft 274 kts 339°
2026-05-04 17:59 21.86395 39.08890 6557 ft 280 kts 360°
2026-05-04 17:59 21.89907 39.10666 8047 ft 294 kts 41°
2026-05-04 18:00 21.91378 39.12232 8841 ft 298 kts 43°
2026-05-04 18:00 21.92848 39.13832 9531 ft 304 kts 44°
2026-05-04 18:00 21.94339 39.15468 10176 ft 310 kts 45°
2026-05-04 18:00 21.95912 39.17188 10399 ft 333 kts 44°
2026-05-04 18:01 21.97549 39.18968 10776 ft 347 kts 44°
2026-05-04 18:01 21.99265 39.20828 11393 ft 352 kts 44°
2026-05-04 18:01 22.01006 39.22711 12061 ft 356 kts 45°
2026-05-04 18:02 22.04547 39.26535 13394 ft 365 kts 45°
2026-05-04 18:02 22.06352 39.28487 14015 ft 369 kts 45°
2026-05-04 18:02 22.08172 39.30457 14621 ft 373 kts 45°
2026-05-04 18:02 22.10010 39.32449 15248 ft 376 kts 45°
2026-05-04 18:03 22.11859 39.34452 15855 ft 379 kts 45°
2026-05-04 18:03 22.13744 39.36491 16442 ft 383 kts 45°
2026-05-04 18:03 22.15635 39.38537 17038 ft 387 kts 45°
2026-05-04 18:03 22.17530 39.40590 17660 ft 390 kts 44°
2026-05-04 18:04 22.19452 39.42675 18245 ft 393 kts 44°
2026-05-04 18:04 22.21384 39.44770 18764 ft 396 kts 44°
2026-05-04 18:04 22.25310 39.49033 19792 ft 404 kts 44°
2026-05-04 18:05 22.27298 39.51197 20299 ft 407 kts 44°
2026-05-04 18:05 22.29296 39.53374 20801 ft 411 kts 44°
2026-05-04 18:05 22.31319 39.55578 21308 ft 414 kts 44°
2026-05-04 18:05 22.33372 39.57810 21818 ft 418 kts 44°
2026-05-04 18:06 22.37475 39.62271 22837 ft 425 kts 44°
2026-05-04 18:06 22.39568 39.64549 23321 ft 429 kts 44°
2026-05-04 18:06 22.41678 39.66849 23744 ft 433 kts 44°
2026-05-04 18:07 22.43808 39.69173 24148 ft 437 kts 44°
2026-05-04 18:07 22.45954 39.71517 24521 ft 440 kts 44°
2026-05-04 18:07 22.48114 39.73880 24870 ft 445 kts 44°
2026-05-04 18:07 22.50305 39.76272 25272 ft 448 kts 44°
2026-05-04 18:08 22.52511 39.78676 25631 ft 452 kts 43°
2026-05-04 18:08 22.54732 39.81099 25956 ft 456 kts 43°
2026-05-04 18:08 22.56983 39.83558 26275 ft 460 kts 43°
2026-05-04 18:08 22.59248 39.86035 26628 ft 464 kts 43°
2026-05-04 18:09 22.63819 39.91040 27284 ft 471 kts 43°
2026-05-04 18:09 22.68450 39.96113 27945 ft 477 kts 43°
2026-05-04 18:10 22.70787 39.98680 28257 ft 480 kts 43°
2026-05-04 18:10 22.73141 40.01267 28572 ft 484 kts 43°
2026-05-04 18:10 22.75483 40.03840 28860 ft 487 kts 43°
2026-05-04 18:10 22.77903 40.06496 29150 ft 491 kts 42°
2026-05-04 18:11 22.80307 40.09134 29436 ft 494 kts 42°
2026-05-04 18:11 22.82694 40.11755 29713 ft 497 kts 42°
2026-05-04 18:11 22.85118 40.14417 29996 ft 499 kts 42°
2026-05-04 18:11 22.87574 40.17119 30238 ft 502 kts 42°
2026-05-04 18:12 22.90028 40.19825 30465 ft 505 kts 42°
2026-05-04 18:12 22.92490 40.22546 30690 ft 508 kts 42°
2026-05-04 18:12 22.94973 40.25291 30880 ft 511 kts 42°
2026-05-04 18:12 22.97468 40.28050 31098 ft 512 kts 42°
2026-05-04 18:13 22.99972 40.30818 31309 ft 514 kts 42°
2026-05-04 18:13 23.01668 40.32691 31451 ft 516 kts 42°
2026-05-04 18:13 23.06700 40.38253 32009 ft 516 kts 42°
2026-05-04 18:14 23.09215 40.41033 32300 ft 516 kts 42°
2026-05-04 18:14 23.11735 40.43814 32565 ft 517 kts 42°
2026-05-04 18:14 23.14265 40.46603 32823 ft 519 kts 42°
2026-05-04 18:15 23.19262 40.52139 33420 ft 517 kts 43°
2026-05-04 18:15 23.24281 40.57737 33967 ft 518 kts 44°
2026-05-04 18:15 23.26582 40.60763 34245 ft 520 kts 53°
2026-05-04 18:16 23.28467 40.64116 34500 ft 522 kts 62°
2026-05-04 18:16 23.29915 40.67750 34693 ft 524 kts 70°
2026-05-04 18:16 23.31198 40.71466 34921 ft 524 kts 70°
2026-05-04 18:17 23.33764 40.78883 35413 ft 524 kts 69°
2026-05-04 18:17 23.35054 40.82593 35641 ft 523 kts 69°
2026-05-04 18:17 23.37638 40.90014 36135 ft 522 kts 69°
2026-05-04 18:18 23.38919 40.93707 36376 ft 521 kts 69°
2026-05-04 18:18 23.40197 40.97400 36611 ft 520 kts 69°
2026-05-04 18:18 23.41472 41.01088 36818 ft 521 kts 69°
2026-05-04 18:18 23.42747 41.04779 36959 ft 521 kts 69°
2026-05-04 18:19 23.45288 41.12140 36984 ft 518 kts 69°
2026-05-04 18:19 23.47794 41.19431 36982 ft 517 kts 69°
2026-05-04 18:20 23.50316 41.26758 36986 ft 516 kts 69°
2026-05-04 18:20 23.52833 41.34084 36980 ft 516 kts 69°
2026-05-04 18:21 23.55331 41.41397 36989 ft 517 kts 70°
2026-05-04 18:21 23.57844 41.48761 36984 ft 517 kts 70°
2026-05-04 18:22 23.60342 41.56079 36987 ft 517 kts 70°
2026-05-04 18:22 23.62855 41.63442 36975 ft 516 kts 69°
2026-05-04 18:23 23.65356 41.70762 37005 ft 516 kts 70°
2026-05-04 18:23 23.67848 41.78125 36980 ft 516 kts 70°
2026-05-04 18:24 23.70218 41.85522 36969 ft 516 kts 71°
2026-05-04 18:24 23.72522 41.92925 36968 ft 517 kts 71°
2026-05-04 18:25 23.74859 42.00338 36953 ft 517 kts 71°
2026-05-04 18:25 23.77334 42.07693 36966 ft 516 kts 69°
2026-05-04 18:26 23.79891 42.14967 36969 ft 516 kts 69°
2026-05-04 18:26 23.82432 42.22289 36963 ft 515 kts 69°
2026-05-04 18:27 23.84919 42.29620 36970 ft 514 kts 70°
2026-05-04 18:27 23.87398 42.36953 36973 ft 514 kts 70°
2026-05-04 18:28 23.89880 42.44289 36980 ft 513 kts 70°
2026-05-04 18:28 23.92356 42.51604 36976 ft 513 kts 70°
2026-05-04 18:29 23.94834 42.58929 36967 ft 513 kts 70°
2026-05-04 18:29 23.97303 42.66249 36968 ft 513 kts 70°
2026-05-04 18:30 24.00984 42.77202 36984 ft 513 kts 70°
2026-05-04 18:30 24.02404 42.80777 36968 ft 511 kts 57°
2026-05-04 18:31 24.04532 42.83841 36944 ft 504 kts 40°
2026-05-04 18:31 24.07272 42.86158 36936 ft 492 kts 22°
2026-05-04 18:31 24.10354 42.87698 36937 ft 486 kts 17°
2026-05-04 18:31 24.13357 42.89519 36930 ft 497 kts 32°
2026-05-04 18:32 24.15855 42.92062 36931 ft 505 kts 49°
2026-05-04 18:32 24.17726 42.95325 36952 ft 508 kts 67°
2026-05-04 18:32 24.18803 42.99007 36944 ft 508 kts 77°
2026-05-04 18:33 24.20559 43.06552 36930 ft 511 kts 77°
2026-05-04 18:33 24.22317 43.14081 36933 ft 513 kts 77°
2026-05-04 18:34 24.24099 43.21673 36944 ft 515 kts 77°
2026-05-04 18:34 24.25871 43.29272 36941 ft 515 kts 77°
2026-05-04 18:35 24.27644 43.36875 36969 ft 515 kts 77°
2026-05-04 18:35 24.29424 43.44504 36948 ft 516 kts 77°
2026-05-04 18:36 24.31191 43.52144 36960 ft 516 kts 77°
2026-05-04 18:36 24.32951 43.59777 36964 ft 516 kts 77°
2026-05-04 18:37 24.34700 43.67336 36964 ft 516 kts 77°
2026-05-04 18:37 24.36456 43.74955 36973 ft 515 kts 77°
2026-05-04 18:38 24.38212 43.82601 36964 ft 515 kts 77°
2026-05-04 18:38 24.39954 43.90231 36952 ft 515 kts 77°
2026-05-04 18:39 24.41691 43.97848 36960 ft 515 kts 77°
2026-05-04 18:39 24.42560 44.01658 36796 ft 516 kts 77°
2026-05-04 18:39 24.43430 44.05476 36533 ft 515 kts 77°
2026-05-04 18:39 24.44302 44.09309 36309 ft 514 kts 77°
2026-05-04 18:40 24.45154 44.13120 36090 ft 515 kts 78°
2026-05-04 18:40 24.45923 44.16961 35845 ft 516 kts 79°
2026-05-04 18:40 24.46605 44.20824 35606 ft 515 kts 81°
2026-05-04 18:40 24.47233 44.24694 35362 ft 514 kts 81°
2026-05-04 18:41 24.47840 44.28546 35126 ft 512 kts 81°
2026-05-04 18:41 24.48453 44.32383 34807 ft 508 kts 81°
2026-05-04 18:41 24.49082 44.36188 34233 ft 507 kts 80°
2026-05-04 18:41 24.49733 44.39986 33644 ft 506 kts 80°
2026-05-04 18:42 24.50398 44.43765 33090 ft 502 kts 80°
2026-05-04 18:42 24.51063 44.47510 32564 ft 498 kts 80°
2026-05-04 18:42 24.51721 44.51231 32020 ft 495 kts 80°
2026-05-04 18:42 24.52370 44.54935 31505 ft 493 kts 80°
2026-05-04 18:43 24.53004 44.58603 30964 ft 490 kts 80°
2026-05-04 18:43 24.53632 44.62290 30445 ft 488 kts 80°
2026-05-04 18:43 24.54241 44.65878 29942 ft 485 kts 80°
2026-05-04 18:43 24.54864 44.69546 29394 ft 481 kts 80°
2026-05-04 18:44 24.55469 44.73088 28925 ft 475 kts 80°
2026-05-04 18:44 24.55879 44.75478 28594 ft 466 kts 80°
2026-05-04 18:44 24.56670 44.80085 27995 ft 458 kts 80°
2026-05-04 18:44 24.57254 44.83512 27534 ft 454 kts 80°
2026-05-04 18:45 24.57828 44.86905 27073 ft 450 kts 80°
2026-05-04 18:45 24.58395 44.90273 26611 ft 447 kts 80°
2026-05-04 18:45 24.58953 44.93602 26152 ft 444 kts 80°
2026-05-04 18:45 24.59512 44.96928 25687 ft 441 kts 80°
2026-05-04 18:46 24.60069 45.00234 25194 ft 440 kts 80°
2026-05-04 18:46 24.60626 45.03542 24712 ft 437 kts 80°
2026-05-04 18:46 24.61175 45.06817 24234 ft 435 kts 80°
2026-05-04 18:46 24.61721 45.10084 23769 ft 432 kts 80°
2026-05-04 18:47 24.62263 45.13313 23424 ft 426 kts 79°
2026-05-04 18:47 24.62799 45.16494 22814 ft 418 kts 80°
2026-05-04 18:47 24.63322 45.19590 22083 ft 410 kts 79°
2026-05-04 18:47 24.63836 45.22630 21723 ft 400 kts 79°
2026-05-04 18:48 24.64331 45.25576 21256 ft 394 kts 80°
2026-05-04 18:48 24.64825 45.28553 20809 ft 390 kts 80°
2026-05-04 18:48 24.65302 45.31443 20370 ft 388 kts 80°
2026-05-04 18:48 24.65783 45.34357 19930 ft 386 kts 80°
2026-05-04 18:49 24.66261 45.37245 19498 ft 384 kts 80°
2026-05-04 18:49 24.66736 45.40116 19062 ft 378 kts 80°
2026-05-04 18:49 24.67205 45.42945 18641 ft 373 kts 80°
2026-05-04 18:49 24.67665 45.45727 18217 ft 368 kts 80°
2026-05-04 18:50 24.68122 45.48484 17756 ft 364 kts 80°
2026-05-04 18:50 24.68575 45.51216 17349 ft 362 kts 80°
2026-05-04 18:50 24.69021 45.53920 16943 ft 359 kts 80°
2026-05-04 18:50 24.69465 45.56618 16539 ft 357 kts 80°
2026-05-04 18:51 24.69909 45.59307 16138 ft 355 kts 80°
2026-05-04 18:51 24.70350 45.61974 15748 ft 353 kts 80°
2026-05-04 18:51 24.70784 45.64605 15365 ft 352 kts 80°
2026-05-04 18:51 24.71191 45.67063 15006 ft 350 kts 79°
2026-05-04 18:52 24.71830 45.69637 14705 ft 346 kts 73°
2026-05-04 18:52 24.72523 45.72157 14535 ft 338 kts 73°
2026-05-04 18:52 24.73195 45.74623 14299 ft 335 kts 73°
2026-05-04 18:52 24.73862 45.77072 14053 ft 334 kts 73°
2026-05-04 18:53 24.74523 45.79506 13812 ft 331 kts 73°
2026-05-04 18:53 24.75165 45.81878 13562 ft 329 kts 73°
2026-05-04 18:53 24.75821 45.84305 13309 ft 328 kts 73°
2026-05-04 18:53 24.76471 45.86705 13067 ft 327 kts 73°
2026-05-04 18:54 24.77118 45.89082 12826 ft 326 kts 73°
2026-05-04 18:54 24.77771 45.91481 12583 ft 325 kts 73°
2026-05-04 18:54 24.78414 45.93842 12348 ft 324 kts 73°
2026-05-04 18:54 24.79057 45.96216 12107 ft 323 kts 73°
2026-05-04 18:55 24.79696 45.98573 11875 ft 322 kts 73°
2026-05-04 18:55 24.80973 46.03282 11403 ft 320 kts 73°
2026-05-04 18:55 24.81609 46.05625 11168 ft 319 kts 73°
2026-05-04 18:56 24.82240 46.07954 10935 ft 318 kts 73°
2026-05-04 18:56 24.82870 46.10284 10698 ft 317 kts 73°
2026-05-04 18:56 24.83496 46.12606 10460 ft 316 kts 73°
2026-05-04 18:56 24.84121 46.14922 10235 ft 315 kts 73°
2026-05-04 18:57 24.84743 46.17223 10004 ft 312 kts 74°
2026-05-04 18:57 24.85349 46.19476 9769 ft 308 kts 74°
2026-05-04 18:57 24.85974 46.21801 8988 ft 319 kts 74°
2026-05-04 18:57 24.86608 46.24166 8075 ft 334 kts 75°
2026-05-04 18:58 24.87281 46.26674 7688 ft 329 kts 75°
2026-05-04 18:58 24.87904 46.28991 7568 ft 315 kts 75°
2026-05-04 18:58 24.88521 46.31290 7442 ft 302 kts 75°
2026-05-04 18:58 24.89192 46.33411 7181 ft 296 kts 62°
2026-05-04 18:59 24.90519 46.35113 6824 ft 294 kts 36°
2026-05-04 18:59 24.92380 46.35998 6454 ft 293 kts
2026-05-04 18:59 24.94404 46.35970 6022 ft 291 kts 353°
2026-05-04 18:59 24.96420 46.35758 5586 ft 292 kts 355°
2026-05-04 19:00 24.98451 46.35677 5147 ft 292 kts 360°
2026-05-04 19:00 25.00471 46.35765 4730 ft 291 kts
2026-05-04 19:00 25.02485 46.36032 4316 ft 289 kts
2026-05-04 19:00 25.04446 46.36463 4024 ft 285 kts 14°
2026-05-04 19:01 25.06309 46.37024 3977 ft 268 kts 18°
2026-05-04 19:01 25.08012 46.37670 3984 ft 254 kts 21°
2026-05-04 19:01 25.09618 46.38401 3987 ft 242 kts 26°
2026-05-04 19:01 25.11122 46.39193 3989 ft 236 kts 31°
2026-05-04 19:02 25.12293 46.40395 3989 ft 230 kts 63°
2026-05-04 19:02 25.12920 46.41963 3984 ft 217 kts 71°
2026-05-04 19:02 25.13399 46.43487 4022 ft 209 kts 73°
2026-05-04 19:02 25.13846 46.44996 3996 ft 206 kts 73°
2026-05-04 19:03 25.14290 46.46498 3982 ft 206 kts 73°
2026-05-04 19:03 25.14732 46.47998 3989 ft 205 kts 73°
2026-05-04 19:03 25.15029 46.49011 3989 ft 205 kts 74°
2026-05-04 19:03 25.15426 46.51046 3991 ft 205 kts 82°
2026-05-04 19:04 25.15564 46.52097 3990 ft 205 kts 83°
2026-05-04 19:04 25.15760 46.53660 3993 ft 205 kts 83°
2026-05-04 19:04 25.15954 46.55222 3993 ft 206 kts 84°
2026-05-04 19:04 25.15978 46.56784 3991 ft 203 kts 100°
2026-05-04 19:05 25.15521 46.58218 3994 ft 202 kts 120°
2026-05-04 19:05 25.14602 46.59415 3997 ft 202 kts 141°
2026-05-04 19:05 25.13430 46.60221 3999 ft 203 kts 149°
2026-05-04 19:05 25.12203 46.60999 4001 ft 203 kts 149°
2026-05-04 19:06 25.10989 46.61770 4001 ft 202 kts 149°
2026-05-04 19:06 25.09844 46.62495 3989 ft 177 kts 149°
2026-05-04 19:06 25.08750 46.63190 4016 ft 184 kts 149°
2026-05-04 19:06 25.07638 46.63896 4005 ft 185 kts 149°
2026-05-04 19:07 25.06524 46.64602 3896 ft 185 kts 149°
2026-05-04 19:07 25.05418 46.65302 3702 ft 175 kts 148°
2026-05-04 19:07 25.04432 46.65926 3504 ft 154 kts 148°
2026-05-04 19:07 25.03532 46.66496 3329 ft 145 kts 148°
2026-05-04 19:08 25.02672 46.67042 3155 ft 140 kts 147°
2026-05-04 19:08 25.01830 46.67575 2988 ft 139 kts 147°
2026-05-04 19:08 25.00990 46.68108 2822 ft 141 kts 147°
2026-05-04 19:08 25.00134 46.68650 2645 ft 142 kts 147°
2026-05-04 19:09 24.99264 46.69201 2461 ft 145 kts 148°
2026-05-04 19:09 24.98395 46.69753 2244 ft 144 kts 148°
2026-05-04 19:09 24.97538 46.70296 2068 ft 140 kts 149°
2026-05-04 19:09 24.96746 46.70798 2034 ft 115 kts 148°
2026-05-04 19:10 24.96380 46.71029 2033 ft 34 kts 155°
2026-05-04 19:10 24.96140 46.71105 2034 ft 14 kts 194°
2026-05-04 19:10 24.96104 46.71097 2033 ft 1 kts 169°
2026-05-04 19:10 24.96063 46.71083 2031 ft 0 kts 213°
2026-05-04 19:11 24.96062 46.71083 2031 ft 1 kts 213°
2026-05-04 19:11 24.96013 46.71040 2032 ft 12 kts 226°
2026-05-04 19:11 24.95969 46.70969 2035 ft 10 kts 238°
2026-05-04 19:11 24.95933 46.70905 2034 ft 9 kts 238°
2026-05-04 19:12 24.95902 46.70850 2036 ft 8 kts 239°
2026-05-04 19:12 24.95859 46.70711 2030 ft 15 kts 295°
2026-05-04 19:12 24.95904 46.70622 2033 ft 13 kts 266°
2026-05-04 19:13 24.95891 46.70551 2035 ft 5 kts 256°
2026-05-04 19:13 24.95889 46.70541 2030 ft 0 kts 254°
2026-05-04 19:13 24.95888 46.70541 2030 ft 0 kts 254°